QPF
0.00 0.00 0.00 0.01 0.00 0.00 0.00 0.00 0.00 0.00 0.01 0.00 0.00 0.00 0.00 0.00 0.00 0.00 0.00 0.00 0.00 0.00 0.00 0.00 0.00 0.00 0.00 0.00 0.00 0.00 0.00 0.00 0.00
0.01 0.01 0.00 0.00 0.00 0.00 0.00 0.00 0.00 0.00 0.00 0.00 0.00 0.00 0.00 0.00 0.00 0.00 0.00 0.00 0.00 0.00 0.00 0.00 0.00 0.00 0.00 0.00 0.00 0.00 0.00 0.00 0.00
0.01 0.00 0.00 0.00 0.00 0.00 0.00 0.00 0.00 0.00 0.00 0.00 0.00 0.00 0.00 0.00 0.00 0.00 0.00 0.00 0.00 0.00 0.00 0.00 0.00 0.00 0.00 0.00 0.00 0.00 0.00 0.00 0.00
0.01 0.00 0.00 0.00 0.00 0.00 0.00 0.00 0.00 0.00 0.00 0.00 0.00 0.00 0.00 0.00 0.00 0.00 0.00 0.00 0.00 0.00 0.00 0.00 0.00 0.00 0.00 0.00 0.00 0.00 0.00 0.00 0.00
0.00 0.00 0.00 0.00 0.00 0.00 0.00 0.00 0.00 0.00 0.00 0.00 0.00 0.00 0.00 0.00 0.00 0.00 0.00 0.00 0.00 0.00 0.00 0.00 0.00 0.00 0.00 0.00 0.00 0.00 0.00 0.00 0.00
0.00 0.00 0.00 0.00 0.00 0.00 0.00 0.00 0.00 0.00 0.00 0.00 0.00 0.00 0.00 0.00 0.00 0.00 0.00 0.00 0.00 0.00 0.00 0.00 0.00 0.00 0.00 0.00 0.00 0.00 0.00 0.00 0.00
0.00 0.00 0.00 0.00 0.00 0.00 0.00 0.00 0.00 0.00 0.00 0.00 0.00 0.00 0.00 0.00 0.00 0.00 0.00 0.00 0.00 0.00 0.00 0.00 0.00 0.00 0.00 0.00 0.00 0.00 0.00 0.00 0.00
0.00 0.00 0.00 0.00 0.00 0.00 0.00 0.00 0.00 0.00 0.00 0.00 0.00 0.00 0.00 0.00 0.00 0.00 0.00 0.00 0.00 0.00 0.00 0.00 0.00 0.00 0.00 0.00 0.00 0.00 0.00 0.00 0.00
0.00 0.01 0.01 0.00 0.00 0.00 0.00 0.00 0.00 0.00 0.00 0.00 0.00 0.00 0.00 0.00 0.00 0.00 0.00 0.00 0.00 0.00 0.00 0.00 0.00 0.00 0.00 0.00 0.00 0.00 0.00 0.00 0.00
0.00 0.00 0.00 0.00 0.00 0.00 0.00 0.00 0.00 0.00 0.00 0.00 0.00 0.00 0.00 0.00 0.00 0.00 0.00 0.00 0.00 0.00 0.00 0.00 0.00 0.00 0.00 0.00 0.00 0.00 0.00 0.00 0.00
0.01 0.00 0.00 0.00 0.00 0.00 0.00 0.00 0.00 0.00 0.00 0.00 0.00 0.00 0.00 0.00 0.00 0.00 0.00 0.00 0.00 0.00 0.00 0.00 0.00 0.00 0.00 0.01 0.01 0.00 0.00 0.01 0.01
0.01 0.00 0.00 0.01 0.02 0.01 0.00 0.02 0.05 0.01 0.00 0.00 0.00 0.00 0.00 0.00 0.00 0.00 0.00 0.00 0.00 0.00 0.00 0.00 0.00 0.00 0.00 0.00 0.00 0.01 0.01 0.01 0.01
0.03 0.00 0.00 0.00 0.00 0.00 0.00 0.00 0.02 0.05 0.02 0.00 0.00 0.00 0.00 0.00 0.00 0.00 0.00 0.00 0.00 0.00 0.00 0.00 0.00 0.00 0.00 0.00 0.00 0.00 0.01 0.01 0.01
0.00 0.00 0.00 0.00 0.00 0.00 0.00 0.00 0.00 0.00 0.00 0.00 0.00 0.00 0.00 0.00 0.00 0.00 0.00 0.00 0.00 0.00 0.00 0.00 0.00 0.00 0.00 0.00 0.00 0.00 0.02 0.01 0.00
0.00 0.00 0.00 0.00 0.00 0.00 0.00 0.00 0.00 0.00 0.01 0.02 0.02 0.01 0.00 0.00 0.00 0.00 0.00 0.00 0.00 0.00 0.00 0.00 0.00 0.00 0.00 0.00 0.00 0.00 0.02 0.03 0.03
0.00 0.00 0.00 0.00 0.00 0.00 0.00 0.00 0.00 0.00 0.00 0.01 0.01 0.00 0.01 0.02 0.00 0.00 0.00 0.00 0.00 0.00 0.00 0.00 0.00 0.00 0.00 0.00 0.00 0.00 0.01 0.03 0.03
0.01 0.00 0.00 0.00 0.00 0.00 0.00 0.00 0.00 0.00 0.00 0.00 0.01 0.01 0.00 0.00 0.00 0.00 0.00 0.00 0.00 0.00 0.00 0.00 0.00 0.00 0.00 0.00 0.00 0.00 0.00 0.00 0.02
0.04 0.01 0.00 0.00 0.00 0.00 0.00 0.00 0.00 0.00 0.00 0.00 0.01 0.01 0.00 0.00 0.00 0.00 0.00 0.00 0.00 0.00 0.00 0.00 0.00 0.00 0.00 0.00 0.00 0.00 0.00 0.00 0.00
0.04 0.01 0.00 0.00 0.00 0.00 0.00 0.00 0.00 0.00 0.00 0.01 0.01 0.00 0.00 0.01 0.00 0.00 0.00 0.00 0.00 0.00 0.00 0.00 0.00 0.00 0.00 0.00 0.00 0.00 0.00 0.00 0.00
0.03 0.02 0.00 0.00 0.00 0.00 0.00 0.00 0.00 0.01 0.01 0.01 0.01 0.01 0.02 0.02 0.03 0.01 0.00 0.00 0.00 0.00 0.00 0.00 0.00 0.00 0.00 0.00 0.00 0.00 0.00 0.01 0.00
MSLP
1016.45 1016.56 1016.66 1016.83 1017.04 1017.25 1017.36 1017.48 1017.66 1017.79 1017.87 1017.86 1017.96 1018.14 1018.18 1018.23 1018.38 1018.36 1018.50 1018.64 1018.66 1018.70 1018.78 1018.79 1018.80 1018.80 1018.80 1018.77 1018.76 1018.77 1018.75 1018.70 1018.63
1016.29 1016.50 1016.67 1016.79 1016.98 1017.14 1017.37 1017.58 1017.72 1017.82 1017.94 1017.98 1018.01 1018.17 1018.23 1018.44 1018.41 1018.33 1018.44 1018.52 1018.62 1018.82 1018.92 1018.93 1018.93 1018.92 1018.94 1018.95 1018.94 1018.90 1018.90 1018.87 1018.81
1016.29 1016.39 1016.61 1016.73 1016.98 1017.16 1017.34 1017.54 1017.73 1017.82 1017.93 1017.97 1018.02 1018.15 1018.19 1018.30 1018.56 1018.48 1018.37 1018.26 1018.46 1018.70 1018.89 1018.99 1019.03 1019.04 1019.05 1019.05 1019.05 1019.09 1019.07 1019.03 1019.00
1016.22 1016.39 1016.51 1016.66 1016.83 1017.01 1017.24 1017.45 1017.64 1017.78 1017.87 1017.94 1018.05 1018.12 1018.07 1018.30 1018.42 1018.45 1018.22 1018.19 1018.25 1018.43 1018.65 1018.82 1018.89 1018.92 1018.98 1019.07 1019.06 1019.06 1019.11 1019.11 1019.09
1016.01 1016.21 1016.39 1016.55 1016.73 1016.85 1017.10 1017.27 1017.48 1017.68 1017.83 1017.84 1017.93 1018.04 1018.06 1018.20 1018.17 1018.18 1018.18 1018.06 1018.12 1018.35 1018.49 1018.54 1018.59 1018.74 1018.86 1018.97 1019.04 1019.08 1019.12 1019.18 1019.20
1015.85 1015.98 1016.15 1016.38 1016.62 1016.82 1016.94 1017.12 1017.29 1017.49 1017.74 1017.85 1017.97 1018.08 1018.15 1018.11 1018.06 1018.08 1017.80 1017.83 1017.88 1018.12 1018.32 1018.37 1018.39 1018.45 1018.56 1018.69 1018.80 1018.92 1019.01 1019.05 1019.13
1015.40 1015.55 1015.77 1015.92 1016.23 1016.54 1016.79 1016.94 1017.12 1017.30 1017.57 1017.71 1017.79 1017.94 1017.92 1017.93 1017.91 1017.84 1017.68 1017.62 1017.67 1017.87 1018.10 1018.26 1018.32 1018.36 1018.41 1018.45 1018.52 1018.61 1018.71 1018.77 1018.85
1015.13 1015.29 1015.46 1015.73 1015.86 1016.25 1016.57 1016.84 1017.01 1017.17 1017.34 1017.50 1017.64 1017.69 1017.72 1017.56 1017.51 1017.49 1017.46 1017.38 1017.42 1017.58 1017.84 1018.04 1018.13 1018.22 1018.27 1018.26 1018.26 1018.31 1018.38 1018.48 1018.55
1014.78 1014.95 1015.17 1015.40 1015.55 1015.82 1016.13 1016.49 1016.77 1016.94 1016.99 1017.12 1017.28 1017.30 1017.33 1017.14 1017.02 1017.18 1017.18 1017.00 1017.04 1017.17 1017.34 1017.54 1017.80 1017.91 1017.96 1018.02 1018.01 1017.97 1018.07 1018.15 1018.24
1014.35 1014.47 1014.77 1015.03 1015.17 1015.45 1015.75 1015.97 1016.20 1016.49 1016.66 1016.66 1016.82 1016.87 1016.82 1016.78 1016.53 1016.56 1016.76 1016.75 1016.75 1016.77 1016.88 1017.01 1017.18 1017.31 1017.44 1017.48 1017.51 1017.53 1017.59 1017.66 1017.72
1013.90 1014.24 1014.54 1014.80 1014.86 1014.99 1015.25 1015.58 1015.82 1015.94 1016.08 1016.17 1016.01 1016.12 1016.26 1016.20 1016.02 1015.91 1016.04 1016.27 1016.26 1016.31 1016.47 1016.57 1016.56 1016.59 1016.68 1016.74 1016.85 1016.93 1017.03 1017.14 1017.17
1013.42 1013.88 1014.20 1014.37 1014.56 1014.78 1015.10 1015.29 1015.45 1015.66 1015.56 1015.62 1015.31 1015.44 1015.54 1015.49 1015.51 1015.47 1015.56 1015.68 1015.78 1015.78 1015.78 1015.87 1015.94 1016.08 1016.15 1016.12 1016.21 1016.30 1016.44 1016.53 1016.66
1013.49 1013.71 1013.86 1013.90 1014.17 1014.41 1014.81 1015.10 1015.27 1015.46 1015.55 1015.36 1015.26 1015.17 1015.02 1015.03 1015.02 1015.04 1014.97 1015.09 1015.13 1015.30 1015.37 1015.37 1015.39 1015.32 1015.47 1015.63 1015.66 1015.72 1015.82 1015.95 1016.10
1012.80 1013.34 1013.59 1013.69 1014.01 1014.26 1014.50 1014.85 1015.03 1015.15 1015.23 1015.13 1014.97 1014.83 1014.73 1014.66 1014.42 1014.51 1014.40 1014.57 1014.54 1014.47 1014.60 1014.66 1014.78 1014.88 1014.80 1014.82 1014.93 1015.08 1015.24 1015.37 1015.44
1012.30 1012.69 1013.19 1013.38 1013.84 1014.14 1014.43 1014.64 1014.77 1014.77 1014.74 1014.80 1014.82 1014.58 1014.47 1014.34 1014.18 1013.98 1013.72 1013.81 1013.78 1013.84 1013.86 1014.02 1014.24 1014.40 1014.32 1014.20 1014.33 1014.33 1014.40 1014.66 1014.80
1011.74 1012.41 1012.80 1013.08 1013.51 1013.78 1014.01 1014.25 1014.52 1014.63 1014.61 1014.80 1014.57 1014.37 1014.12 1014.08 1013.80 1013.66 1013.50 1013.39 1013.16 1013.28 1013.21 1013.37 1013.45 1013.53 1013.70 1013.70 1013.31 1013.09 1013.55 1013.59 1013.91
1011.46 1011.92 1012.53 1012.97 1013.27 1013.59 1013.83 1014.02 1014.17 1014.22 1014.28 1014.63 1014.70 1014.25 1013.76 1013.36 1013.02 1012.84 1012.80 1012.65 1012.38 1012.60 1012.55 1012.57 1012.63 1012.69 1012.82 1012.77 1012.68 1012.69 1012.80 1012.66 1012.86
1011.81 1011.73 1012.15 1012.83 1013.07 1013.37 1013.58 1013.77 1013.97 1013.92 1013.78 1013.90 1014.33 1013.94 1013.39 1012.93 1012.36 1012.23 1011.98 1011.88 1011.87 1011.86 1011.70 1011.76 1011.77 1011.87 1012.02 1012.12 1012.07 1012.01 1012.08 1012.03 1012.19
1011.80 1011.48 1012.13 1012.82 1013.12 1013.13 1013.16 1013.23 1013.38 1013.59 1013.48 1013.42 1013.28 1013.17 1013.01 1012.82 1012.22 1011.88 1011.55 1011.34 1011.15 1011.00 1010.95 1010.95 1010.86 1011.04 1011.13 1011.16 1011.22 1011.21 1011.48 1011.61 1011.69
1011.93 1011.64 1012.35 1012.79 1013.09 1013.20 1013.04 1012.99 1012.97 1012.87 1012.75 1012.66 1012.56 1012.45 1012.25 1012.11 1012.25 1011.19 1011.07 1010.87 1010.49 1010.30 1010.30 1010.27 1010.30 1010.08 1010.16 1010.46 1010.49 1010.54 1010.81 1010.99 1011.02
Thickness
5731 5731 5731 5731 5729 5728 5726 5725 5723 5722 5721 5720 5720 5719 5718 5717 5716 5716 5714 5713 5712 5711 5711 5710 5710 5709 5709 5708 5708 5707 5707 5707 5706
5727 5727 5727 5727 5726 5725 5723 5722 5721 5719 5718 5717 5717 5716 5716 5714 5715 5714 5713 5712 5710 5708 5707 5707 5707 5706 5705 5705 5705 5704 5704 5703 5702
5722 5721 5721 5722 5721 5720 5720 5718 5717 5717 5715 5715 5714 5714 5714 5713 5711 5710 5711 5711 5709 5707 5705 5704 5703 5703 5703 5702 5702 5701 5700 5699 5698
5718 5717 5716 5716 5716 5716 5716 5715 5714 5712 5712 5711 5711 5711 5711 5710 5709 5706 5709 5708 5707 5706 5704 5703 5702 5701 5700 5699 5699 5698 5697 5696 5695
5717 5714 5713 5712 5712 5712 5711 5710 5709 5708 5707 5708 5708 5708 5708 5708 5708 5705 5706 5705 5704 5702 5701 5700 5700 5699 5698 5697 5696 5695 5693 5691 5690
5714 5713 5711 5709 5707 5706 5706 5706 5705 5704 5703 5702 5702 5702 5704 5704 5704 5703 5704 5703 5702 5700 5699 5698 5697 5696 5695 5694 5692 5691 5689 5687 5686
5711 5711 5709 5708 5706 5703 5701 5700 5700 5700 5699 5698 5697 5697 5699 5700 5700 5700 5700 5699 5698 5697 5695 5694 5693 5692 5691 5690 5689 5688 5686 5685 5683
5705 5705 5706 5705 5704 5701 5698 5696 5695 5694 5694 5694 5693 5693 5694 5696 5697 5695 5695 5696 5695 5693 5691 5690 5689 5688 5687 5686 5685 5685 5684 5682 5681
5700 5700 5700 5700 5700 5698 5696 5693 5691 5690 5689 5688 5687 5688 5689 5692 5693 5692 5691 5692 5692 5690 5689 5688 5686 5685 5683 5682 5682 5682 5681 5679 5677
5694 5695 5694 5695 5695 5695 5693 5691 5689 5687 5686 5685 5684 5683 5684 5686 5689 5689 5688 5687 5687 5687 5686 5684 5683 5682 5681 5680 5679 5679 5678 5677 5676
5687 5687 5686 5686 5689 5689 5689 5688 5686 5685 5683 5683 5683 5683 5682 5682 5683 5686 5687 5685 5684 5684 5683 5682 5681 5680 5680 5679 5678 5676 5676 5675 5674
5679 5679 5678 5678 5681 5682 5680 5679 5680 5680 5679 5680 5682 5681 5682 5683 5682 5682 5684 5684 5682 5682 5682 5680 5679 5678 5677 5677 5677 5676 5674 5673 5671
5666 5666 5667 5671 5673 5673 5673 5673 5673 5673 5673 5674 5675 5678 5679 5679 5679 5679 5681 5681 5681 5680 5677 5676 5676 5676 5674 5673 5673 5672 5671 5669 5668
5656 5656 5656 5659 5661 5663 5664 5664 5665 5666 5666 5669 5671 5672 5674 5675 5675 5676 5678 5679 5679 5679 5677 5675 5674 5672 5673 5672 5671 5669 5666 5665 5664
5648 5647 5647 5650 5650 5651 5652 5653 5656 5659 5660 5661 5662 5666 5667 5668 5670 5674 5674 5673 5674 5674 5676 5674 5671 5668 5669 5670 5667 5666 5663 5662 5662
5638 5637 5637 5640 5641 5642 5643 5644 5646 5648 5649 5649 5652 5656 5660 5661 5665 5667 5667 5668 5669 5668 5669 5669 5669 5666 5664 5664 5666 5667 5662 5661 5659
5629 5628 5627 5629 5631 5632 5634 5635 5636 5639 5638 5636 5637 5644 5651 5657 5660 5662 5664 5666 5666 5664 5664 5663 5664 5663 5660 5660 5660 5660 5659 5661 5659
5614 5616 5617 5619 5622 5622 5623 5625 5627 5629 5632 5632 5627 5630 5640 5646 5654 5655 5658 5661 5661 5661 5660 5659 5658 5657 5655 5655 5655 5655 5654 5654 5653
5600 5606 5606 5607 5610 5615 5617 5618 5619 5620 5625 5624 5627 5629 5631 5635 5643 5648 5651 5653 5654 5656 5654 5654 5654 5652 5651 5650 5649 5649 5646 5645 5644
5589 5597 5596 5597 5600 5605 5609 5611 5613 5615 5618 5619 5622 5623 5625 5629 5626 5639 5644 5644 5648 5649 5648 5649 5648 5648 5646 5643 5641 5641 5637 5635 5636